Date,TemperatureHighF,TemperatureAvgF,TemperatureLowF,DewpointHighF,DewpointAvgF,DewpointLowF,HumidityHigh,HumidityAvg,HumidityLow,PressureMaxIn,PressureMinIn,WindSpeedMaxMPH,WindSpeedAvgMPH,GustSpeedMaxMPH,PrecipitationSumIn
2013-1-1,24.4,17.4,8.1,14.2,7.2,-1.7,75,64,52,30.27,30.14,0,0,0,0.00
2013-1-2,32.7,17.8,7.0,16.7,6.4,-2.2,69,61,47,30.26,30.15,0,0,0,0.00
2013-1-3,36.9,26.7,18.9,24.6,17.0,7.7,75,67,54,30.39,30.18,6,1,13,0.00
2013-1-4,37.2,24.8,12.6,20.7,12.8,3.4,68,60,48,30.40,30.28,8,3,17,0.02
2013-1-5,40.8,33.1,24.6,29.6,22.8,13.5,75,66,56,30.28,30.05,9,3,15,0.07
2013-1-6,37.9,29.6,22.3,29.4,18.4,13.2,72,62,49,30.37,30.04,8,4,20,0.00
2013-1-7,44.4,31.8,22.3,28.4,20.7,13.7,70,63,51,30.37,30.13,6,2,12,0.00
2013-1-8,51.6,38.3,28.8,32.6,26.1,20.2,70,62,44,30.18,30.08,4,2,8,0.00
2013-1-9,52.9,42.8,33.6,33.7,29.7,22.9,74,60,42,30.49,30.13,5,2,12,0.00
2013-1-10,51.8,41.1,33.8,47.4,33.1,23.7,86,74,58,30.47,29.79,4,2,11,1.58
2013-1-11,61.5,53.6,47.7,49.7,45.6,43.4,86,75,61,29.85,29.72,8,4,21,0.09
2013-1-12,55.4,43.2,27.7,44.9,33.0,20.5,80,68,54,29.99,29.76,6,3,17,0.18
2013-1-13,27.5,20.7,14.7,20.3,11.5,5.2,74,67,57,30.35,29.92,0,0,0,0.00
2013-1-14,27.5,18.1,13.3,12.7,7.6,3.8,69,63,52,30.49,30.35,0,0,0,0.00
2013-1-15,30.0,21.2,13.1,17.1,11.0,4.9,70,64,54,30.44,30.14,0,0,0,0.00
2013-1-16,40.6,28.9,17.1,23.2,16.1,7.7,72,59,46,30.16,29.98,11,2,20,0.05
2013-1-17,37.4,31.4,24.6,24.5,18.1,10.7,75,59,34,30.46,30.11,7,2,18,0.00
2013-1-18,50.7,37.0,24.6,29.3,21.8,13.3,64,54,42,30.48,30.07,8,3,19,0.02
2013-1-19,58.1,46.3,37.9,36.3,30.0,24.8,61,53,42,30.12,29.88,15,6,28,0.00
2013-1-20,40.3,23.6,17.6,27.5,6.7,-0.2,64,48,37,30.37,30.12,8,3,18,0.00
2013-1-21,17.6,13.2,8.1,4.9,-7.9,-16.1,57,39,23,30.39,30.29,8,5,21,0.00
2013-1-22,16.0,11.3,5.2,-4.8,-10.2,-12.9,46,37,26,30.48,30.36,5,2,12,0.00
2013-1-23,39.4,24.1,12.4,17.5,7.2,-5.5,57,48,38,30.38,30.12,7,3,16,0.00
2013-1-24,26.2,18.5,10.2,4.9,-1.5,-8.7,53,41,29,30.63,30.27,6,3,14,0.00
2013-1-25,41.7,30.3,23.9,18.0,11.3,4.7,60,45,34,30.27,30.08,8,3,17,0.00
2013-1-26,37.2,25.6,14.4,17.3,7.1,-0.1,60,45,27,30.41,30.23,3,2,9,0.00
2013-1-27,46.8,34.7,24.4,42.5,26.7,10.7,85,73,50,30.32,29.89,6,3,17,0.28
2013-1-28,69.3,56.7,46.8,57.1,50.2,42.5,85,79,65,29.95,29.81,5,3,11,0.02
2013-1-29,66.0,58.6,51.6,56.8,51.9,46.8,84,79,70,29.80,29.41,9,3,22,1.95
2013-1-30,51.6,34.0,21.9,46.9,25.9,7.5,86,72,49,29.89,29.33,16,6,27,0.25
2013-1-31,25.2,18.8,6.8,13.9,3.7,-10.8,63,51,41,30.37,29.88,9,6,22,0.00
2013-2-1,24.4,13.8,4.1,15.0,-3.2,-11.2,73,46,31,30.47,30.17,7,4,17,0.00
2013-2-2,34.9,27.5,22.5,19.5,13.1,9.0,70,54,46,30.20,30.05,8,4,17,0.00
2013-2-3,34.3,27.8,22.5,22.6,14.1,8.6,78,57,35,30.17,30.00,9,4,22,0.00
2013-2-4,47.1,33.4,26.2,27.9,19.6,12.4,67,57,44,30.00,29.80,6,3,15,0.00
2013-2-5,50.5,34.2,25.5,30.6,22.7,15.1,75,63,46,30.13,29.87,10,3,18,0.00
2013-2-6,51.1,37.4,26.2,30.8,26.0,19.1,80,64,39,30.23,30.04,5,2,11,0.00
2013-2-7,41.0,38.3,35.6,36.7,31.8,27.3,85,77,67,30.05,29.87,6,2,17,0.64
2013-2-8,35.6,31.7,27.7,30.3,23.7,18.4,83,72,65,30.39,30.06,6,3,16,0.00
2013-2-9,40.5,33.1,28.4,30.2,24.0,20.4,75,69,61,30.36,30.02,5,3,11,0.02
2013-2-10,52.0,44.7,36.9,45.1,37.3,27.3,85,76,52,30.03,29.52,15,6,28,0.51
2013-2-11,46.9,38.4,30.7,28.1,22.8,18.1,66,53,42,30.15,29.71,16,7,36,0.00
2013-2-12,41.2,32.7,25.9,25.6,21.3,17.2,73,63,53,30.17,29.95,4,1,7,0.00
2013-2-13,51.6,38.7,30.6,29.9,25.1,21.2,69,59,37,29.96,29.79,8,3,17,0.00
2013-2-14,50.0,40.7,34.3,31.1,27.9,22.7,71,61,45,30.06,29.77,7,3,17,0.00
2013-2-15,38.7,30.4,23.0,23.3,10.9,2.3,68,46,23,30.27,30.06,6,4,14,0.00
2013-2-16,34.9,24.3,15.8,10.1,5.9,1.4,59,46,26,30.27,30.16,6,3,14,0.00
2013-2-17,44.2,30.7,17.4,22.2,14.2,5.5,65,51,29,30.19,29.89,4,3,12,0.00
2013-2-18,56.7,42.3,29.7,42.9,31.5,18.6,81,66,55,29.89,29.50,10,5,29,0.41
2013-2-19,29.7,23.1,17.6,19.4,7.4,2.2,65,51,41,30.30,29.86,11,4,22,0.00
2013-2-20,23.0,17.7,8.2,9.4,1.9,-6.1,64,49,40,30.43,30.28,5,2,14,0.00
2013-2-21,31.3,23.4,16.9,26.1,14.9,7.6,81,70,60,30.34,29.84,5,2,19,0.00
2013-2-22,33.6,29.8,22.6,27.6,21.8,13.0,83,72,61,30.04,29.78,10,4,21,0.05
2013-2-23,33.3,22.7,12.6,17.2,11.4,4.7,71,62,50,30.04,29.99,7,2,12,0.02
2013-2-24,43.2,29.2,17.1,23.8,15.9,7.0,68,58,43,30.14,30.02,4,1,6,0.11
2013-2-25,45.0,35.5,27.1,30.9,24.4,17.6,72,64,53,30.10,29.76,7,3,18,0.00
2013-2-26,35.4,33.2,31.5,28.5,27.1,25.0,81,78,66,29.77,29.42,8,4,26,1.20
2013-2-27,35.8,32.2,30.6,28.7,26.0,24.6,81,78,68,29.86,29.63,6,2,12,0.32
2013-2-28,35.2,32.0,30.6,25.8,25.2,24.5,80,76,67,30.10,29.86,5,2,12,0.04
2013-3-1,34.5,29.4,24.8,24.8,21.1,16.6,80,71,57,30.22,30.06,5,2,12,0.12
2013-3-2,35.6,26.8,18.0,16.8,12.1,5.5,71,54,34,30.25,30.20,6,3,16,0.00
2013-3-3,37.0,25.9,12.4,19.9,10.0,2.9,67,52,24,30.22,30.05,4,1,8,0.00
2013-3-4,45.5,35.6,29.5,29.8,24.6,18.3,77,64,53,30.06,29.82,6,3,13,0.07
2013-3-5,34.0,32.3,30.2,26.9,23.3,17.3,80,69,54,30.12,29.83,9,5,23,0.05
2013-3-6,34.0,29.0,22.3,20.6,17.4,13.4,70,62,53,30.36,30.12,8,4,17,0.00
2013-3-7,45.3,31.7,22.1,27.7,20.8,14.2,73,64,46,30.43,30.33,3,1,8,0.00
2013-3-8,51.1,39.5,29.1,33.7,27.9,22.2,75,64,46,30.43,30.20,4,2,9,0.00
2013-3-9,59.4,47.3,37.9,41.9,34.9,28.8,81,63,49,30.20,29.78,6,4,14,0.90
2013-3-10,55.0,50.6,45.3,47.5,43.8,37.4,83,78,53,29.78,29.62,6,2,14,1.17
2013-3-11,45.1,34.7,32.5,38.2,27.0,21.4,81,73,63,29.97,29.68,10,6,22,0.02
2013-3-12,43.3,33.3,25.9,26.9,21.2,14.4,74,61,49,30.20,29.95,10,5,22,0.00
2013-3-13,39.6,30.5,24.3,16.4,13.0,8.5,62,49,30,30.40,30.19,8,4,18,0.00
2013-3-14,53.4,37.2,25.9,31.6,22.6,13.2,68,56,42,30.39,30.10,5,2,15,0.00
2013-3-15,63.3,47.9,32.0,44.2,34.3,24.0,73,60,42,30.11,29.65,4,2,8,0.00
2013-3-16,54.0,41.5,35.8,42.1,32.5,24.1,82,70,62,30.08,29.63,7,3,14,0.00
2013-3-17,41.0,34.8,30.9,27.8,24.7,20.6,78,66,54,30.14,29.84,4,2,14,0.09
2013-3-18,50.2,37.2,30.4,34.0,26.8,12.3,81,68,35,30.02,29.69,10,4,21,0.09
2013-3-19,44.4,33.9,24.8,15.9,10.2,2.9,53,38,22,30.20,29.99,8,4,17,0.00
2013-3-20,33.6,26.7,19.4,16.3,5.0,-2.8,57,40,24,30.27,30.12,10,5,19,0.00
2013-3-21,37.9,25.8,15.1,12.3,5.2,0.3,54,42,24,30.14,30.00,4,2,11,0.00
2013-3-22,40.3,32.5,22.5,18.4,14.1,10.6,64,47,32,30.07,30.00,3,1,8,0.00
2013-3-23,54.9,42.5,34.5,25.8,21.2,16.0,58,43,26,30.08,29.89,5,2,14,0.00
2013-3-24,38.5,30.7,29.3,26.7,25.2,23.8,82,80,58,29.96,29.61,6,1,15,0.00
2013-3-25,37.4,30.6,26.2,27.5,22.7,16.8,82,72,61,30.18,29.81,7,2,15,0.00
2013-3-26,42.6,33.5,27.3,23.9,20.5,15.0,73,59,43,30.34,30.18,6,3,13,0.00
2013-3-27,46.0,33.4,22.3,22.4,17.5,13.0,68,53,30,30.40,30.32,4,1,8,0.00
2013-3-28,50.4,38.5,27.0,29.8,22.6,14.2,65,53,36,30.38,30.27,3,1,9,0.00
2013-3-29,60.4,46.5,34.7,40.4,31.5,24.2,68,57,37,30.29,30.21,3,1,8,0.00
2013-3-30,55.4,47.1,39.9,41.0,37.0,30.7,80,68,52,30.23,29.92,5,2,11,0.00
2013-3-31,63.0,51.3,41.9,45.0,38.2,26.5,81,63,37,29.99,29.84,7,3,16,0.00
2013-4-1,47.1,38.9,32.0,26.8,17.5,9.4,57,43,23,30.25,29.98,6,4,20,0.00
2013-4-2,50.5,36.5,23.0,17.5,12.6,7.3,62,39,21,30.36,30.25,5,2,12,0.00
2013-4-3,55.0,40.1,26.1,23.1,16.4,11.3,57,40,20,30.42,30.28,4,2,13,0.00
2013-4-4,61.3,47.0,33.6,27.7,20.6,14.5,53,37,21,30.28,30.04,4,1,12,0.00
2013-4-5,65.1,51.2,36.9,34.6,29.1,24.2,74,45,22,30.20,30.04,4,1,10,0.00
2013-4-6,73.9,61.2,50.0,48.5,38.0,31.4,58,44,23,30.04,29.68,9,4,25,0.00
2013-4-7,77.5,63.8,47.3,53.6,43.9,39.4,75,51,28,29.94,29.78,5,2,11,0.00
2013-4-8,76.6,66.6,55.6,58.3,54.9,48.3,80,67,53,29.86,29.68,10,4,24,0.16
2013-4-9,78.1,69.9,63.5,60.1,56.8,53.9,72,64,52,29.86,29.80,14,4,27,0.00
2013-4-10,68.7,56.7,46.8,60.4,51.2,44.0,92,82,67,29.91,29.62,8,3,19,2.71
2013-4-11,51.1,45.3,38.1,48.5,39.4,29.4,91,80,69,29.72,29.64,10,6,22,0.05
2013-4-12,43.0,40.2,37.8,33.7,31.7,29.9,76,72,66,29.99,29.69,9,6,21,0.00
2013-4-13,57.6,46.2,35.6,40.2,32.8,25.8,79,61,39,30.06,29.92,7,4,16,0.00
2013-4-14,78.8,62.6,46.9,53.1,45.5,38.6,73,56,33,29.95,29.59,8,5,22,0.02
2013-4-15,64.2,55.4,45.7,53.9,49.9,41.4,89,82,61,29.97,29.71,7,2,15,0.73
2013-4-16,50.7,46.3,42.1,42.9,40.3,38.0,89,80,68,30.18,29.94,6,2,14,0.96
2013-4-17,69.6,51.7,44.8,61.7,46.4,39.8,87,82,73,30.17,29.68,9,3,23,0.18
2013-4-18,69.8,55.4,39.0,61.4,49.5,30.6,87,80,69,29.76,29.50,17,5,32,1.42
2013-4-19,47.3,40.1,36.1,31.8,28.2,25.2,75,63,49,30.06,29.71,11,6,24,0.00
2013-4-20,53.2,41.2,30.0,31.8,27.2,22.9,78,59,32,30.35,30.06,4,2,9,0.00
2013-4-21,62.8,50.0,39.6,42.7,35.5,29.9,70,58,42,30.43,30.25,5,3,12,0.00
2013-4-22,72.1,58.5,44.2,47.8,39.1,32.8,68,50,28,30.28,29.98,5,3,14,0.00
2013-4-23,58.6,47.7,38.3,47.9,41.7,35.1,90,81,66,30.05,29.92,6,2,17,0.55
2013-4-24,52.5,42.7,35.1,35.4,31.9,28.9,89,68,40,30.22,30.00,7,4,16,0.12
2013-4-25,61.2,50.0,39.6,35.8,31.3,24.8,74,51,27,30.34,30.18,8,3,21,0.00
2013-4-26,62.2,53.5,46.4,46.0,41.2,34.4,75,63,53,30.35,30.25,10,3,21,0.00
2013-4-27,53.8,50.5,45.7,49.0,45.3,40.2,90,82,75,30.29,29.95,2,1,7,0.66
2013-4-28,62.2,55.2,50.2,52.4,49.4,45.2,92,81,64,29.95,29.88,6,2,11,0.11
2013-4-29,79.2,63.5,48.2,59.9,52.7,44.2,87,70,47,29.93,29.74,5,3,12,0.00
2013-4-30,86.9,73.2,61.5,60.9,56.5,53.6,82,58,34,29.94,29.76,8,4,17,0.00
2013-5-1,84.7,73.0,59.4,57.7,53.9,45.8,75,53,28,30.09,29.94,5,1,12,0.02
2013-5-2,69.8,58.0,43.0,57.4,48.2,39.7,89,70,55,30.20,30.06,7,3,17,0.34
2013-5-3,50.0,44.9,42.6,48.4,42.9,39.8,95,92,89,30.12,29.78,6,2,14,3.12
2013-5-4,50.2,46.4,43.0,48.5,43.7,41.6,95,90,85,30.04,29.81,3,1,7,0.25
2013-5-5,67.1,55.6,45.7,55.8,51.2,43.2,93,86,61,30.03,29.91,4,1,10,0.51
2013-5-6,75.4,63.2,50.7,53.8,50.8,47.8,91,66,39,30.02,29.95,6,1,14,0.02
2013-5-7,81.0,69.0,58.6,56.9,50.4,41.4,78,54,28,30.05,29.97,3,1,8,0.00
2013-5-8,82.2,69.3,56.1,55.5,51.3,43.6,81,56,28,30.05,29.96,6,1,16,0.00
2013-5-9,69.1,64.1,60.8,63.0,58.1,54.7,89,81,71,29.98,29.83,6,1,14,1.67
2013-5-10,61.7,57.3,52.5,56.7,51.9,46.9,89,82,72,30.01,29.84,4,2,11,0.00
2013-5-11,64.6,55.6,46.0,51.4,40.4,28.3,90,60,31,30.16,29.97,7,3,20,0.00
2013-5-12,61.2,49.9,38.8,33.6,30.0,24.7,70,49,27,30.24,30.13,6,2,14,0.02
2013-5-13,72.5,58.1,42.8,43.2,35.1,23.0,69,46,21,30.21,30.02,6,2,12,0.00
2013-5-14,90.7,73.4,54.7,61.7,52.3,42.9,71,50,31,30.01,29.74,12,4,24,0.00
2013-5-15,88.7,78.7,66.4,63.1,57.7,52.1,85,49,42,29.91,29.79,9,4,20,0.64
2013-5-16,84.6,73.3,65.5,65.5,61.8,55.3,89,69,44,29.94,29.84,4,1,11,0.11
2013-5-17,80.4,69.9,61.3,64.2,59.4,54.6,84,70,47,29.98,29.92,2,0,10,0.05
2013-5-18,83.5,73.0,63.9,63.6,61.8,59.4,88,69,49,30.02,29.89,4,0,10,0.00
2013-5-19,90.0,78.2,67.5,70.6,65.6,61.1,81,66,49,29.91,29.70,4,1,12,0.09
2013-5-20,84.4,71.7,62.4,67.0,61.6,57.5,90,72,47,29.88,29.69,10,2,24,1.52
2013-5-21,81.3,71.0,63.3,64.1,60.9,58.8,88,71,52,29.77,29.67,7,3,16,0.00
2013-5-22,73.8,67.0,61.9,61.4,56.1,51.9,87,69,50,29.86,29.64,8,4,17,0.00
2013-5-23,65.8,59.8,52.9,55.1,50.9,45.9,84,73,58,30.26,29.86,5,2,17,0.02
2013-5-24,69.6,56.9,44.2,45.7,41.5,36.1,85,59,34,30.43,30.27,3,1,11,0.00
2013-5-25,62.1,55.4,51.3,52.9,46.8,41.8,88,73,58,30.39,30.19,3,1,12,0.57
2013-5-26,74.7,61.9,52.3,62.4,53.5,45.7,89,74,63,30.23,29.99,3,1,11,0.39
2013-5-27,75.7,66.4,60.8,65.1,61.8,57.6,91,85,67,30.02,29.72,6,1,17,1.40
2013-5-28,80.4,72.3,63.3,70.3,64.5,56.5,86,77,64,29.97,29.75,9,3,19,0.23
2013-5-29,86.9,74.4,62.1,67.5,62.8,56.7,88,69,47,29.96,29.82,6,2,14,0.23
2013-5-30,83.5,73.7,63.7,70.1,64.2,58.8,91,73,60,29.90,29.78,7,2,19,0.66
2013-5-31,76.8,68.5,63.3,69.0,63.5,59.7,91,84,74,29.93,29.67,8,2,17,0.99
2013-6-1,77.5,68.3,61.5,65.4,60.1,53.9,90,76,50,29.88,29.64,8,4,16,0.16
2013-6-2,65.7,61.8,57.7,57.2,53.0,48.9,83,73,64,30.05,29.86,4,2,11,0.00
2013-6-3,71.1,61.9,56.5,51.8,49.3,45.4,82,64,45,30.12,30.01,2,1,8,0.00
2013-6-4,74.1,64.5,54.0,56.0,52.2,48.0,81,66,51,30.12,30.00,3,0,9,0.00
2013-6-5,78.3,69.6,59.0,59.3,56.6,53.4,83,65,47,30.04,29.87,3,0,8,0.00
2013-6-6,77.0,69.1,61.2,60.4,57.0,52.1,85,67,45,29.90,29.84,4,1,11,0.00
2013-6-7,75.6,65.6,55.9,56.5,53.6,51.0,87,67,47,29.94,29.88,4,1,12,0.00
2013-6-8,79.9,68.7,56.1,56.7,53.7,50.7,83,61,42,29.98,29.91,5,1,14,0.07
2013-6-9,77.5,68.3,63.7,63.9,58.6,55.0,88,72,56,29.95,29.79,7,1,14,0.66
2013-6-10,78.1,69.1,63.0,61.5,59.3,58.1,87,72,54,29.92,29.76,4,2,10,0.00
2013-6-11,89.6,76.5,61.9,69.3,63.8,56.7,84,66,46,29.96,29.84,6,2,14,0.00
2013-6-12,93.6,83.5,72.1,71.4,69.1,67.1,84,63,46,29.93,29.68,12,4,25,0.00
2013-6-13,84.2,75.6,67.8,69.8,58.9,53.2,86,58,38,30.01,29.73,5,2,17,0.00
2013-6-14,81.5,73.2,63.0,60.2,56.5,52.6,71,57,43,30.12,29.96,3,0,8,0.00
2013-6-15,86.2,74.0,66.7,69.3,63.4,58.0,92,71,50,30.08,29.89,5,1,16,1.63
2013-6-16,82.8,73.8,66.9,69.5,67.1,64.4,94,80,62,30.02,29.91,6,2,14,0.05
2013-6-17,84.6,76.2,68.2,71.1,66.6,62.3,93,73,54,29.98,29.89,4,1,10,0.00
2013-6-18,85.3,74.9,64.4,66.8,62.4,57.7,88,67,45,30.01,29.91,3,2,14,0.12
2013-6-19,85.3,73.0,60.4,63.8,58.6,52.8,78,61,44,30.09,30.01,2,1,11,0.00
2013-6-20,91.6,79.7,68.4,67.3,63.5,59.1,78,59,42,30.12,30.04,5,1,11,0.00
2013-6-21,91.6,82.7,72.7,71.2,68.4,64.1,80,63,49,30.09,29.98,6,2,15,0.00
2013-6-22,87.1,77.5,70.3,73.5,68.2,61.7,82,73,57,30.10,29.99,6,2,13,0.00
2013-6-23,87.3,74.1,68.4,70.7,65.6,61.7,92,76,56,30.04,29.93,7,2,19,0.78
2013-6-24,89.6,76.9,68.4,73.5,68.5,64.4,90,76,53,30.08,29.89,6,1,14,0.04
2013-6-25,90.3,80.8,74.3,75.1,70.1,67.7,85,71,54,29.96,29.82,8,2,18,0.00
2013-6-26,87.1,78.6,71.4,75.8,71.4,65.5,91,79,66,29.86,29.71,7,1,16,0.28
2013-6-27,91.0,80.9,72.9,73.7,68.9,63.9,90,69,43,29.90,29.79,4,2,12,0.00
2013-6-28,86.4,78.3,69.6,67.0,61.3,55.4,84,58,36,29.86,29.70,5,2,14,0.02
2013-6-29,77.0,69.4,63.7,65.7,60.7,57.5,90,75,59,29.77,29.67,5,2,15,0.71
2013-6-30,77.0,68.5,62.1,65.3,60.2,55.5,87,75,56,29.96,29.77,4,1,12,0.09
2013-7-1,79.9,70.8,61.5,56.4,52.5,47.3,70,53,38,30.02,29.95,4,2,14,0.00
2013-7-2,73.2,67.1,61.2,58.7,54.0,51.0,76,63,50,30.06,29.99,3,1,9,0.02
2013-7-3,81.9,70.3,59.4,60.6,56.8,53.5,84,64,42,30.09,30.01,3,1,8,0.00
2013-7-4,86.0,74.5,64.0,62.9,60.4,58.5,83,63,44,30.09,30.01,4,1,9,0.05
2013-7-5,86.5,75.3,65.1,67.8,62.3,59.0,91,66,43,30.09,30.00,4,0,9,0.00
2013-7-6,86.2,75.9,66.7,68.9,65.2,61.0,89,71,49,30.06,29.96,4,0,9,0.00
2013-7-7,91.0,79.1,67.3,70.3,66.2,60.5,89,66,44,30.02,29.97,6,2,13,0.00
2013-7-8,88.7,80.7,75.4,74.1,70.0,66.7,76,70,56,30.09,29.99,6,2,14,0.00
2013-7-9,92.1,83.5,75.9,73.9,72.1,70.8,85,69,51,30.04,29.90,6,2,13,0.02
2013-7-10,88.7,79.4,70.7,73.8,68.9,62.3,92,72,47,30.02,29.86,11,3,25,0.46
2013-7-11,83.3,73.8,64.2,62.3,60.2,57.7,87,64,45,30.10,30.02,3,1,8,0.00
2013-7-12,84.6,73.0,61.5,59.2,55.7,51.1,78,57,34,30.15,30.06,2,0,9,0.00
2013-7-13,85.6,74.5,62.8,63.2,59.8,55.1,82,61,44,30.13,30.06,2,0,11,0.00
2013-7-14,89.4,77.5,67.1,71.0,65.4,62.0,91,68,46,30.18,30.08,4,0,9,0.11
2013-7-15,90.0,80.7,72.3,74.0,71.3,68.9,91,74,55,30.26,30.16,3,0,8,0.02
2013-7-16,90.9,82.4,74.7,73.2,71.2,68.9,90,70,50,30.31,30.23,4,1,9,0.00
2013-7-17,93.4,83.8,74.8,73.9,71.4,69.6,86,68,49,30.34,30.21,3,1,8,0.00
2013-7-18,93.7,85.1,75.9,73.4,71.5,68.8,86,65,45,30.23,30.02,4,1,9,0.00
2013-7-19,93.7,84.7,75.7,73.6,71.5,70.0,85,66,47,30.03,29.86,6,3,16,0.00
2013-7-20,87.6,80.6,74.8,72.2,68.5,63.4,83,67,49,29.94,29.85,3,1,11,0.00
2013-7-21,80.4,74.0,67.1,71.3,68.4,65.6,96,83,72,29.95,29.86,3,0,8,3.15
2013-7-22,86.9,76.8,67.1,72.9,69.5,66.0,96,80,57,29.88,29.78,5,1,11,0.02
2013-7-23,85.5,76.5,67.8,72.5,65.3,59.8,86,69,51,29.94,29.77,4,1,11,0.05
2013-7-24,76.8,68.9,61.0,60.7,55.6,52.5,84,64,47,30.06,29.93,3,1,10,0.00
2013-7-25,79.9,69.9,59.2,60.3,56.8,53.7,83,64,47,30.13,30.04,3,0,7,0.00
2013-7-26,75.2,69.0,64.2,68.3,62.2,56.9,95,79,71,30.08,29.92,7,2,16,0.92
2013-7-27,71.4,63.7,56.5,62.5,53.4,47.1,95,72,44,30.02,29.95,5,1,16,0.00
2013-7-28,76.5,64.6,52.5,55.1,51.4,47.7,88,65,42,30.08,29.99,6,2,14,0.00
2013-7-29,78.3,69.0,56.8,60.7,56.3,52.7,87,65,44,30.17,30.07,4,0,8,0.00
2013-7-30,74.8,69.8,64.4,68.5,65.3,60.1,96,86,69,30.13,30.00,2,0,11,1.61
2013-7-31,77.0,71.3,67.6,69.2,67.2,64.5,97,87,72,30.06,30.00,2,1,9,0.00
2013-8-1,84.9,74.2,65.1,66.2,63.0,58.6,95,71,45,30.08,29.98,4,1,11,0.00
2013-8-2,80.6,72.8,68.5,70.3,65.1,59.8,93,77,66,29.99,29.92,8,2,16,0.00
2013-8-3,82.6,73.6,67.3,67.7,63.0,57.3,94,72,44,30.14,29.93,3,1,8,0.00
2013-8-4,79.0,70.7,61.3,61.2,59.1,56.8,87,68,48,30.20,30.08,3,0,7,0.12
2013-8-5,77.7,70.4,63.5,66.9,62.4,57.6,88,76,63,30.11,29.87,3,1,14,0.00
2013-8-6,86.7,76.1,68.2,73.6,70.0,65.6,97,82,63,29.93,29.84,4,1,10,0.00
2013-8-7,84.7,75.5,71.4,74.4,70.8,68.3,95,86,69,29.94,29.82,6,2,11,0.07
2013-8-8,80.6,72.8,67.1,70.6,67.3,64.4,95,83,66,30.00,29.91,2,1,8,0.00
2013-8-9,80.2,72.7,65.5,65.8,62.6,58.4,87,72,54,30.09,29.97,2,0,9,0.00
2013-8-10,81.3,73.3,66.4,65.8,61.2,57.0,87,68,44,30.16,30.08,3,1,10,0.00
2013-8-11,83.5,72.4,61.5,64.6,60.4,56.3,87,67,47,30.16,30.06,3,0,8,0.00
2013-8-12,79.9,73.7,67.1,72.2,66.2,60.4,87,77,70,30.08,29.92,4,1,9,0.00
2013-8-13,77.0,68.3,60.8,66.1,59.1,50.3,88,73,53,30.16,29.96,3,1,12,0.00
2013-8-14,73.9,63.3,51.8,54.9,51.4,48.1,89,67,45,30.24,30.14,3,1,8,0.00
2013-8-15,73.8,65.2,56.8,54.6,53.1,51.3,86,66,47,30.20,30.10,2,0,10,0.00
2013-8-16,77.7,67.8,59.7,58.5,55.4,52.1,82,66,45,30.19,30.12,2,1,9,0.00
2013-8-17,79.2,68.8,57.9,58.7,55.7,53.1,86,65,42,30.21,30.14,4,1,10,0.00
2013-8-18,82.2,71.2,59.2,62.8,58.8,53.7,85,66,50,30.20,30.09,3,1,9,0.00
2013-8-19,84.9,73.8,63.7,65.9,62.9,59.3,88,70,50,30.14,30.04,4,1,8,0.00
2013-8-20,87.1,75.6,65.1,68.3,64.2,60.6,86,69,47,30.12,30.04,5,1,10,0.00
2013-8-21,88.2,77.5,68.2,68.2,65.9,63.1,87,69,48,30.12,30.03,6,2,12,0.00
2013-8-22,87.8,77.8,70.2,73.3,68.2,64.4,83,73,57,30.09,30.03,5,1,11,0.00
2013-8-23,86.0,76.7,68.7,70.1,67.3,65.3,91,74,55,30.13,30.07,2,0,8,0.00
2013-8-24,88.9,77.3,67.5,69.0,66.3,63.2,86,70,50,30.23,30.12,3,0,9,0.00
2013-8-25,90.5,77.6,67.1,67.1,64.0,61.4,83,64,42,30.27,30.17,5,1,10,0.00
2013-8-26,91.8,80.1,70.2,73.9,69.2,61.6,90,71,48,30.20,30.05,4,1,9,0.00
2013-8-27,94.5,84.4,74.7,72.0,68.2,65.4,87,60,42,30.08,29.96,8,4,15,0.00
2013-8-28,95.5,82.5,72.3,72.4,67.9,64.0,76,62,44,30.03,29.96,6,3,14,0.00
2013-8-29,90.1,81.3,72.1,75.8,71.3,66.7,85,72,55,30.05,29.97,2,0,8,0.00
2013-8-30,97.9,84.8,75.0,74.3,72.5,70.0,93,69,42,29.98,29.81,6,2,13,0.00
2013-8-31,96.4,84.4,75.7,75.0,72.0,69.3,86,68,47,29.83,29.72,6,2,14,0.00
2013-9-1,89.8,78.4,71.1,74.2,69.4,61.9,96,76,44,29.86,29.78,4,1,10,0.00
2013-9-2,82.8,71.8,62.4,63.8,59.4,54.4,88,66,45,29.99,29.86,3,1,10,0.00
2013-9-3,80.8,67.5,56.1,61.4,57.0,53.2,93,71,45,30.11,29.99,4,1,9,0.00
2013-9-4,86.4,71.6,59.2,62.0,57.9,55.3,89,65,36,30.18,30.07,4,1,8,0.00
2013-9-5,87.8,74.0,61.9,63.6,60.0,56.6,86,64,37,30.21,30.14,3,0,8,0.00
2013-9-6,88.3,75.2,64.8,65.4,62.0,59.7,84,65,43,30.20,30.03,4,1,10,0.00
2013-9-7,90.1,76.5,64.9,70.7,64.6,60.7,87,68,42,30.05,29.90,6,1,12,0.00
2013-9-8,86.5,77.7,70.9,71.6,68.8,64.4,94,75,57,30.01,29.89,4,0,12,2.18
2013-9-9,94.6,81.6,72.9,75.7,71.4,65.9,92,73,48,29.97,29.89,6,2,12,0.00
2013-9-10,94.6,82.8,73.6,71.1,67.4,64.5,77,61,39,30.08,29.96,7,2,12,0.00
2013-9-11,93.6,81.3,69.8,68.9,65.8,62.1,77,60,41,30.13,30.01,6,2,12,0.00
2013-9-12,84.9,73.0,62.4,68.7,61.5,47.3,95,70,31,30.10,30.01,5,2,12,1.35
2013-9-13,72.9,62.2,54.7,53.9,48.0,38.9,86,62,30,30.19,30.09,3,1,10,0.00
2013-9-14,74.8,60.2,49.1,48.9,45.6,38.1,87,61,29,30.20,30.04,3,0,8,0.00
2013-9-15,73.9,64.2,56.3,63.8,54.7,46.4,93,72,53,30.15,29.97,6,2,14,0.07
2013-9-16,71.4,62.5,57.6,56.7,54.5,51.4,90,76,55,30.31,30.14,4,1,17,0.00
2013-9-17,72.9,63.2,53.4,62.0,56.1,49.5,88,78,62,30.28,30.08,3,0,8,0.00
2013-9-18,87.4,73.4,63.5,70.2,65.0,56.5,94,76,53,30.08,29.93,7,2,14,0.02
2013-9-19,90.0,78.8,70.5,70.7,68.2,65.2,87,71,49,29.97,29.83,8,4,18,0.02
2013-9-20,71.1,67.1,56.5,67.7,61.3,50.6,96,82,58,29.94,29.87,4,2,11,0.07
2013-9-21,72.5,59.7,50.5,51.6,49.5,46.3,92,71,40,29.98,29.90,3,1,10,0.00
2013-9-22,75.0,60.8,51.3,52.8,49.7,46.8,86,69,44,30.05,29.95,2,0,6,0.00
2013-9-23,78.1,62.7,50.4,53.1,49.0,45.9,87,63,35,30.06,29.95,1,0,8,0.00
2013-9-24,80.8,65.6,52.5,61.1,55.1,47.8,90,70,48,29.98,29.82,2,0,8,0.11
2013-9-25,84.2,69.0,58.3,64.2,59.5,54.8,92,73,46,29.90,29.83,3,0,8,0.00
2013-9-26,85.1,70.5,59.7,64.8,58.7,55.2,86,68,43,30.03,29.89,3,0,9,0.00
2013-9-27,84.7,71.0,60.1,62.9,55.1,51.1,77,59,36,30.12,30.00,4,0,12,0.00
2013-9-28,81.3,70.4,60.3,66.9,59.8,53.5,95,70,52,30.04,29.91,7,2,16,0.00
2013-9-29,73.9,61.3,52.3,58.2,50.1,41.2,98,70,32,30.09,29.99,3,1,8,0.00
2013-9-30,79.5,64.1,50.9,61.0,52.4,43.5,89,67,46,30.00,29.88,5,1,14,0.00
2013-10-1,80.6,69.8,62.6,68.0,64.9,60.0,97,85,63,30.02,29.92,6,2,11,0.00
2013-10-2,84.7,72.4,64.8,73.1,66.8,64.0,98,84,52,30.07,29.96,3,0,7,0.00
2013-10-3,87.8,72.9,67.1,69.9,66.8,62.0,95,83,47,29.97,29.83,8,2,19,0.00
2013-10-4,88.2,75.8,68.2,69.7,67.2,64.5,96,77,47,29.96,29.88,7,2,17,0.00
2013-10-5,74.5,68.6,55.9,70.9,64.0,50.0,94,85,71,29.94,29.83,8,3,14,0.67
2013-10-6,56.1,50.5,46.9,49.7,43.7,37.7,95,78,59,29.89,29.81,9,4,19,0.00
2013-10-7,71.6,56.5,45.7,49.2,46.8,44.2,97,73,39,30.12,29.86,4,2,11,0.00
2013-10-8,79.5,61.6,49.3,53.0,47.5,45.0,87,63,31,30.20,30.11,4,0,12,0.00
2013-10-9,77.0,60.8,49.3,50.7,47.2,44.8,85,63,34,30.20,30.09,2,0,7,0.00
2013-10-10,80.1,64.9,53.8,60.4,54.7,48.8,92,71,43,30.16,30.00,6,1,11,0.00
2013-10-11,81.5,67.2,57.4,61.2,55.9,52.7,92,70,41,30.05,29.89,6,1,14,0.00
2013-10-12,75.0,64.7,52.0,60.5,53.1,41.5,85,68,32,30.22,29.93,4,1,9,0.00
2013-10-13,70.5,56.4,46.2,43.7,37.7,29.7,76,53,23,30.41,30.22,2,1,8,0.00
2013-10-14,69.1,56.1,42.3,48.4,40.8,33.8,82,58,35,30.37,30.05,2,0,8,0.00
2013-10-15,67.3,60.3,51.8,62.8,55.3,43.8,97,84,65,30.05,29.86,6,2,16,0.57
2013-10-16,54.1,49.6,43.3,44.0,42.0,39.5,87,75,63,30.03,29.96,6,2,16,0.00
2013-10-17,64.0,52.5,46.0,45.9,42.8,36.5,95,72,37,30.00,29.88,7,2,16,0.02
2013-10-18,57.4,48.1,42.4,42.8,39.9,36.3,91,74,47,30.05,29.91,4,2,13,0.05
2013-10-19,57.7,46.3,37.0,40.3,37.5,31.5,96,74,37,30.00,29.89,8,4,17,0.19
2013-10-20,71.1,55.0,40.5,44.7,39.9,36.2,86,60,32,29.93,29.79,9,3,17,0.00
2013-10-21,57.6,48.0,37.4,43.9,36.1,29.8,78,64,43,30.05,29.87,5,2,14,0.00
2013-10-22,53.6,41.4,35.2,45.4,36.7,29.3,92,83,71,30.05,29.79,5,2,12,0.14
2013-10-23,47.8,39.9,32.5,36.2,30.5,25.6,90,71,45,30.13,30.00,6,2,14,0.00
2013-10-24,41.7,37.3,29.8,35.5,27.0,21.9,88,67,52,30.39,30.10,4,2,14,0.00
2013-10-25,55.0,39.6,27.3,32.8,25.9,20.6,82,61,27,30.48,30.18,6,2,13,0.00
2013-10-26,60.4,47.2,37.2,38.4,30.0,20.8,67,53,26,30.17,30.00,7,3,16,0.00
2013-10-27,59.7,43.5,31.5,33.8,28.1,24.5,78,57,26,30.13,30.00,5,1,11,0.00
2013-10-28,68.4,50.2,36.3,40.8,34.1,28.2,78,56,29,30.26,30.05,2,0,8,0.00
2013-10-29,58.1,49.8,41.2,53.5,42.8,32.4,97,77,55,30.26,30.07,3,0,9,0.11
2013-10-30,67.1,61.1,54.3,66.1,60.3,53.5,99,97,94,30.08,29.79,5,1,11,0.74
2013-10-31,64.2,57.5,46.0,63.1,56.0,44.1,99,95,90,29.79,29.38,6,3,14,1.35
2013-11-1,56.1,48.8,43.7,44.9,42.2,39.3,96,79,57,29.83,29.58,7,3,17,0.00
2013-11-2,55.0,45.8,37.8,41.3,36.9,31.6,90,73,43,30.17,29.82,4,2,14,0.00
2013-11-3,59.4,45.0,32.2,38.1,33.2,28.5,89,66,36,30.29,30.14,2,0,9,0.00
2013-11-4,58.5,51.2,46.2,45.0,40.5,35.9,76,67,58,30.20,30.08,7,2,15,0.00
2013-11-5,57.7,54.3,51.4,52.9,49.8,45.0,95,85,76,30.25,29.96,4,1,14,0.16
2013-11-6,58.1,46.5,34.5,57.3,43.5,29.3,98,89,77,30.26,29.87,6,3,15,0.44
2013-11-7,54.5,39.4,29.8,38.0,30.3,26.3,88,72,39,30.34,30.25,9,2,15,0.00
2013-11-8,54.0,43.2,29.7,36.4,31.4,25.8,87,65,41,30.35,30.02,6,2,17,0.00
2013-11-9,68.2,54.0,45.9,41.5,36.7,29.6,72,54,26,30.24,29.99,8,4,17,0.00
2013-11-10,53.1,43.1,36.0,35.9,30.9,27.5,77,62,41,30.43,30.25,4,1,10,0.00
2013-11-11,59.0,44.3,28.6,46.5,35.9,22.6,94,73,59,30.53,30.12,7,3,14,0.35
2013-11-12,35.1,25.9,19.6,21.8,14.8,12.3,76,63,42,30.77,30.53,4,2,12,0.05
2013-11-13,45.5,30.8,19.4,18.3,14.1,8.6,75,53,22,30.67,30.24,8,2,16,0.00
2013-11-14,56.3,41.6,28.9,27.5,19.0,13.8,61,42,20,30.24,30.00,10,3,20,0.00
2013-11-15,57.7,45.5,39.2,41.7,33.5,26.3,84,64,39,30.04,29.90,5,2,11,0.00
2013-11-16,61.9,55.9,46.2,56.4,51.2,42.0,90,84,74,29.90,29.59,9,3,21,0.00
2013-11-17,72.3,60.2,44.2,65.3,51.7,39.7,92,75,44,29.94,29.30,18,5,42,0.12
2013-11-18,53.4,43.5,34.9,40.0,32.0,24.1,87,66,36,30.30,29.94,7,2,16,0.00
2013-11-19,49.1,37.4,30.0,29.2,26.5,23.9,79,66,40,30.36,30.21,2,1,7,0.00
2013-11-20,44.6,38.1,33.4,39.6,32.4,26.3,92,80,68,30.22,30.02,3,2,8,0.25
2013-11-21,50.9,47.9,44.1,48.4,44.6,39.6,97,89,77,30.23,30.06,4,1,11,0.18
2013-11-22,43.9,35.7,27.3,42.8,32.0,22.9,97,86,75,30.53,30.22,6,3,14,0.14
2013-11-23,27.5,23.0,14.9,22.7,11.5,4.1,83,62,41,30.73,30.52,7,4,17,0.00
2013-11-24,30.4,19.4,10.4,10.0,5.9,1.8,74,57,30,30.76,30.41,4,1,8,0.00
2013-11-25,33.8,30.0,24.6,18.8,14.7,9.6,60,53,43,30.41,30.14,7,3,15,0.00
2013-11-26,36.9,28.7,19.9,25.6,15.7,4.4,75,58,42,30.26,30.08,8,3,17,0.00
2013-11-27,30.6,20.5,13.6,7.7,3.4,-1.0,61,48,28,30.35,30.23,5,2,14,0.00
2013-11-28,43.2,29.0,19.9,22.1,14.3,7.4,64,54,42,30.51,30.19,9,3,18,0.00
2013-11-29,43.0,30.4,19.4,23.5,18.2,11.6,73,61,44,30.60,30.35,4,1,9,0.00
2013-11-30,55.9,40.8,30.4,37.4,30.6,23.5,82,68,48,30.36,30.08,6,2,14,0.00
2013-12-1,54.3,41.6,32.5,36.3,31.9,28.8,89,70,43,30.13,29.92,2,1,7,0.00
2013-12-2,50.2,40.8,34.3,41.7,35.1,27.3,94,80,70,29.93,29.67,2,1,5,0.00
2013-12-3,54.0,47.7,42.3,51.5,46.0,40.7,98,94,85,29.69,29.59,4,2,11,0.00
2013-12-4,61.7,50.1,33.4,54.4,46.6,26.7,97,88,71,29.87,29.50,8,3,16,0.00
2013-12-5,33.4,24.6,21.0,26.7,11.9,5.7,77,58,49,30.31,29.86,7,4,17,0.00
2013-12-6,20.8,17.1,11.5,7.2,1.3,-3.2,57,49,39,30.60,30.29,5,3,12,0.00
2013-12-7,24.6,14.4,7.3,0.3,-3.2,-8.9,61,46,23,30.71,30.46,4,2,9,0.00
2013-12-8,25.2,22.0,16.2,20.5,13.4,0.4,84,70,49,30.47,30.00,7,2,12,0.00
2013-12-9,24.8,19.7,14.0,18.8,8.2,0.4,78,61,48,30.31,30.05,7,4,15,0.00
2013-12-10,33.6,20.7,8.4,10.5,3.3,-3.4,61,47,29,30.31,30.16,12,3,22,0.00
2013-12-11,26.4,19.0,5.4,14.7,0.8,-18.1,64,46,22,30.64,30.25,7,3,17,0.00
2013-12-12,39.4,20.5,3.6,10.4,0.7,-12.5,55,43,25,30.62,30.23,10,3,18,0.00
2013-12-13,36.9,29.7,22.3,29.2,19.1,9.3,90,66,43,30.23,29.97,4,1,11,0.04
2013-12-14,33.3,29.5,22.8,30.9,26.0,17.3,92,87,79,30.12,29.87,0,0,0,0.05
2013-12-15,26.8,21.3,15.8,18.1,14.1,8.7,80,73,64,30.16,30.06,0,0,0,0.00
2013-12-16,24.6,21.9,18.1,20.6,16.2,11.3,85,78,72,30.14,30.00,0,0,0,0.00
2013-12-17,40.1,28.5,19.0,28.9,19.9,9.8,85,71,48,30.25,30.11,5,2,11,0.37
2013-12-18,43.7,32.7,21.0,29.9,19.3,8.9,73,58,41,30.24,29.88,5,2,15,0.14
2013-12-19,50.9,44.6,37.4,44.6,38.0,29.9,85,78,67,29.91,29.76,4,2,14,0.00
2013-12-20,56.8,42.5,30.7,53.3,39.8,27.6,94,90,84,29.89,29.70,6,2,13,0.07
2013-12-21,32.2,30.4,29.1,29.9,27.7,26.3,92,90,88,29.88,29.59,3,0,6,0.00
2013-12-22,32.2,29.0,19.8,30.0,25.5,14.1,92,87,76,30.27,29.62,0,0,0,0.00
2013-12-23,19.8,14.9,5.5,14.1,5.5,-7.8,78,66,53,30.57,30.27,0,0,0,0.00
2013-12-24,21.0,11.2,0.7,10.1,-1.6,-12.7,63,55,47,30.61,30.32,0,0,0,0.00
2013-12-25,32.2,27.4,21.2,26.9,20.8,9.5,85,76,60,30.33,30.18,0,0,0,0.00
2013-12-26,42.3,32.1,20.5,32.1,23.1,14.0,82,69,61,30.34,30.19,7,1,14,0.34
2013-12-27,51.3,42.5,34.2,32.8,27.9,22.9,75,57,46,30.35,30.18,8,2,11,0.16
2013-12-28,57.4,48.5,37.6,33.6,30.8,28.3,69,51,34,30.21,29.90,6,2,12,0.16
2013-12-29,38.3,23.7,9.1,28.0,9.3,-15.5,81,59,10,30.29,29.85,8,4,21,0.00
2013-12-30,22.3,12.2,2.5,5.6,-6.2,-10.9,55,43,25,30.35,30.17,4,2,10,0.00
2013-12-31,37.2,26.0,16.0,20.3,12.7,5.3,70,57,45,30.39,30.13,4,2,9,0.00
2014-1-1,28.4,23.0,18.3,19.2,15.6,10.9,80,73,63,30.16,30.08,4,2,14,0.00
2014-1-2,20.7,12.7,1.0,11.3,1.5,-10.9,74,60,46,30.47,30.11,7,3,17,0.00